EDT,Max TemperatureF,Mean TemperatureF,Min TemperatureF,Max Dew PointF,MeanDew PointF,Min DewpointF,Max Humidity, Mean Humidity, Min Humidity, Max Sea Level PressureIn, Mean Sea Level PressureIn, Min Sea Level PressureIn, Max VisibilityMiles, Mean VisibilityMiles, Min VisibilityMiles, Max Wind SpeedMPH, Mean Wind SpeedMPH, Max Gust SpeedMPH,PrecipitationIn, CloudCover, Events, WindDirDegrees
2013-7-1,68,65,62,64,61,57,94,83,77,29.96,29.95,29.92,10,10,7,14,11,17,0.00,7,,26
2013-7-2,73,68,62,64,64,63,100,83,73,30.02,30.01,29.99,7,5,3,7,5,,0.00,7,,29
2013-7-3,78,72,68,66,65,63,94,72,57,30.12,30.11,30.10,10,10,7,12,9,16,0.00,4,,184
2013-7-4,,,,,,,,,,,,,,,,,,,,,,
2013-7-5,78,72,66,66,65,64,100,78,61,30.17,30.15,30.12,10,8,1,7,3,,0.00,7,,173
2013-7-6,73,71,69,68,67,64,94,86,73,30.14,30.11,30.09,10,10,10,9,2,,0.00,7,,210
2013-7-7,78,73,69,66,66,64,88,76,65,30.12,30.11,30.09,10,10,7,14,9,,0.00,5,,190
2013-7-8,82,78,75,68,68,66,73,65,62,30.14,30.12,30.10,10,10,10,12,11,17,0.00,2,,214
2013-7-9,86,81,78,72,71,70,78,69,62,30.08,30.06,30.03,10,10,10,12,9,,0.00,2,,225
2013-7-10,84,76,68,73,70,64,94,77,70,30.01,29.94,29.90,10,10,7,17,11,40,0.00,5,Rain,229
2013-7-11,77,70,66,57,56,54,73,56,44,30.08,30.07,30.05,10,10,10,14,10,20,0.00,3,,14
2013-7-12,77,72,66,59,55,52,73,54,44,30.15,30.14,30.13,10,10,10,12,6,17,0.00,3,,18
2013-7-13,82,73,68,63,62,59,83,60,48,30.16,30.15,30.12,10,10,10,12,9,,0.00,4,,71
2013-7-14,86,82,77,66,66,66,69,57,51,30.22,30.22,30.21,10,10,10,14,11,,0.00,3,,121
2013-7-15,86,82,77,68,67,66,74,59,51,30.34,30.32,30.30,10,10,10,12,12,,0.00,2,,178
2013-7-16,87,84,80,70,68,68,70,58,52,30.37,30.36,30.33,10,10,10,6,1,,0.00,2,,275
2013-7-17,87,82,78,72,69,66,78,60,49,30.38,30.35,30.29,10,10,10,7,3,,0.00,2,,309
2013-7-18,89,84,78,72,69,68,78,58,49,30.22,30.19,30.14,10,10,10,9,1,,0.00,3,,300
2013-7-19,89,84,78,73,70,68,83,61,49,30.04,30.01,29.95,10,9,5,12,10,17,0.00,3,,232
2013-7-20,78,76,73,72,70,68,89,81,69,29.94,29.92,29.90,10,10,10,12,9,17,0.00,5,,265
2013-7-21,82,78,73,68,68,66,83,67,58,30.01,29.99,29.97,10,10,10,0,0,,0.00,3,,-1
2013-7-22,78,72,69,68,67,66,88,79,69,29.88,29.86,29.83,10,9,3,12,6,,0.00,6,Rain,68
2013-7-23,86,80,75,70,67,63,83,61,45,29.83,29.81,29.79,10,10,10,17,10,29,0.00,3,,268
2013-7-24,73,64,60,54,52,50,68,57,47,30.02,30.01,29.98,10,10,10,12,12,17,0.00,4,,23
2013-7-25,73,68,62,54,50,46,72,52,38,30.12,30.12,30.11,10,10,10,7,6,,0.00,1,,56
2013-7-26,78,70,64,57,55,54,73,53,42,30.11,30.08,30.03,10,10,10,12,10,,0.00,1,,176
2013-7-27,75,70,64,66,58,50,100,67,41,29.91,29.89,29.87,10,8,2,12,10,23,0.00,5,,236
2013-7-28,69,64,60,63,48,43,78,52,38,30.00,30.00,29.99,10,10,10,17,14,29,0.00,4,,262
2013-7-29,75,68,62,52,48,46,68,47,36,30.18,30.16,30.15,10,10,10,12,6,,0.00,2,,270
2013-7-30,75,72,68,59,57,55,68,58,50,30.24,30.22,30.19,10,10,10,6,5,,0.00,6,,189
2013-7-31,73,66,64,68,66,64,100,96,83,30.09,30.07,30.02,5,3,2,12,7,,0.00,8,Rain,166